TimeCST,TemperatureF,Dew PointF,Humidity,Sea Level PressureIn,VisibilityMPH,Wind Direction,Wind SpeedMPH,Gust SpeedMPH,PrecipitationIn,Events,Conditions,WindDirDegrees,DateUTC
12:15 AM,44.6,35.6,71,30.29,10.0,North,16.1,-,N/A,,Clear,360,2012-11-12 06:15:00
12:35 AM,42.8,35.6,76,30.30,10.0,North,15.0,19.6,N/A,,Clear,350,2012-11-12 06:35:00
12:55 AM,42.8,33.8,70,30.30,10.0,North,12.7,-,N/A,,Clear,360,2012-11-12 06:55:00
1:15 AM,41.0,33.8,76,30.31,10.0,North,9.2,-,N/A,,Clear,360,2012-11-12 07:15:00
1:35 AM,41.0,33.8,76,30.32,10.0,North,10.4,-,N/A,,Clear,360,2012-11-12 07:35:00
1:55 AM,41.0,32.0,70,30.33,10.0,North,8.1,-,N/A,,Clear,360,2012-11-12 07:55:00
2:15 AM,39.2,32.0,75,30.34,10.0,North,8.1,-,N/A,,Clear,350,2012-11-12 08:15:00
2:35 AM,37.4,32.0,81,30.35,10.0,North,4.6,-,N/A,,Clear,350,2012-11-12 08:35:00
2:55 AM,39.2,32.0,75,30.35,10.0,North,5.8,-,N/A,,Clear,360,2012-11-12 08:55:00
3:15 AM,37.4,32.0,81,30.36,10.0,North,8.1,-,N/A,,Clear,10,2012-11-12 09:15:00
3:35 AM,37.4,30.2,75,30.36,10.0,North,5.8,-,N/A,,Clear,360,2012-11-12 09:35:00
3:55 AM,37.4,30.2,75,30.36,10.0,North,9.2,-,N/A,,Clear,360,2012-11-12 09:55:00
4:15 AM,37.4,28.4,70,30.37,10.0,North,10.4,-,N/A,,Clear,360,2012-11-12 10:15:00
4:35 AM,37.4,28.4,70,30.38,10.0,North,8.1,-,N/A,,Clear,360,2012-11-12 10:35:00
4:55 AM,37.4,28.4,70,30.39,10.0,North,8.1,-,N/A,,Clear,360,2012-11-12 10:55:00
5:15 AM,37.4,28.4,70,30.40,10.0,North,9.2,-,N/A,,Clear,360,2012-11-12 11:15:00
5:35 AM,35.6,28.4,75,30.41,10.0,North,6.9,-,N/A,,Clear,350,2012-11-12 11:35:00
5:55 AM,35.6,28.4,75,30.42,10.0,North,6.9,-,N/A,,Clear,360,2012-11-12 11:55:00
6:15 AM,35.6,28.4,75,30.43,10.0,North,6.9,-,N/A,,Clear,350,2012-11-12 12:15:00
6:35 AM,35.6,26.6,70,30.44,10.0,North,9.2,-,N/A,,Clear,360,2012-11-12 12:35:00
6:55 AM,35.6,26.6,70,30.45,10.0,North,6.9,-,N/A,,Clear,360,2012-11-12 12:55:00
7:15 AM,33.8,26.6,75,30.46,10.0,North,6.9,-,N/A,,Clear,350,2012-11-12 13:15:00
7:35 AM,35.6,28.4,75,30.47,10.0,NNW,6.9,-,N/A,,Clear,340,2012-11-12 13:35:00
7:55 AM,37.4,28.4,70,30.49,10.0,North,8.1,-,N/A,,Clear,350,2012-11-12 13:55:00
8:15 AM,37.4,26.6,65,30.50,10.0,North,10.4,-,N/A,,Clear,360,2012-11-12 14:15:00
8:35 AM,39.2,26.6,61,30.51,10.0,NNE,8.1,-,N/A,,Clear,20,2012-11-12 14:35:00
8:55 AM,41.0,26.6,57,30.52,10.0,NNE,10.4,-,N/A,,Clear,30,2012-11-12 14:55:00
9:15 AM,41.0,26.6,57,30.51,10.0,NNE,9.2,-,N/A,,Clear,20,2012-11-12 15:15:00
9:35 AM,42.8,26.6,53,30.51,10.0,NNE,6.9,-,N/A,,Clear,20,2012-11-12 15:35:00
9:55 AM,42.8,26.6,53,30.51,10.0,NNE,9.2,-,N/A,,Clear,30,2012-11-12 15:55:00
10:15 AM,44.6,26.6,49,30.52,10.0,NNE,9.2,-,N/A,,Clear,30,2012-11-12 16:15:00
10:35 AM,44.6,23.0,43,30.52,10.0,NE,9.2,-,N/A,,Clear,40,2012-11-12 16:35:00
10:55 AM,46.4,23.0,40,30.52,10.0,NNE,9.2,-,N/A,,Clear,30,2012-11-12 16:55:00
11:15 AM,46.4,23.0,40,30.52,10.0,NNE,9.2,-,N/A,,Clear,20,2012-11-12 17:15:00
11:35 AM,48.2,23.0,37,30.51,10.0,North,8.1,-,N/A,,Clear,360,2012-11-12 17:35:00
11:55 AM,48.2,23.0,37,30.50,10.0,North,8.1,-,N/A,,Clear,360,2012-11-12 17:55:00
12:15 PM,50.0,23.0,35,30.50,10.0,North,9.2,-,N/A,,Clear,360,2012-11-12 18:15:00
12:35 PM,50.0,23.0,35,30.49,10.0,North,10.4,-,N/A,,Clear,10,2012-11-12 18:35:00
12:55 PM,51.8,23.0,33,30.48,10.0,North,9.2,-,N/A,,Clear,360,2012-11-12 18:55:00
1:15 PM,51.8,21.2,30,30.47,10.0,North,9.2,-,N/A,,Clear,10,2012-11-12 19:15:00
1:35 PM,53.6,23.0,30,30.47,10.0,NNE,8.1,-,N/A,,Clear,20,2012-11-12 19:35:00
1:55 PM,53.6,21.2,28,30.46,10.0,NE,5.8,-,N/A,,Clear,40,2012-11-12 19:55:00
2:15 PM,53.6,21.2,28,30.46,10.0,North,9.2,17.3,N/A,,Clear,360,2012-11-12 20:15:00
2:35 PM,55.4,21.2,26,30.46,10.0,NNE,4.6,-,N/A,,Clear,20,2012-11-12 20:35:00
2:55 PM,55.4,21.2,26,30.46,10.0,NNE,5.8,-,N/A,,Clear,30,2012-11-12 20:55:00
3:15 PM,53.6,19.4,26,30.46,10.0,NE,8.1,-,N/A,,Clear,50,2012-11-12 21:15:00
3:35 PM,55.4,21.2,26,30.46,10.0,ENE,8.1,-,N/A,,Clear,60,2012-11-12 21:35:00
3:55 PM,55.4,19.4,25,30.46,10.0,NNE,5.8,-,N/A,,Clear,30,2012-11-12 21:55:00
4:15 PM,55.4,21.2,26,30.46,10.0,NE,8.1,-,N/A,,Clear,40,2012-11-12 22:15:00
4:35 PM,53.6,21.2,28,30.46,10.0,NNE,4.6,-,N/A,,Clear,30,2012-11-12 22:35:00
4:55 PM,53.6,21.2,28,30.46,10.0,NE,3.5,-,N/A,,Clear,50,2012-11-12 22:55:00
5:15 PM,53.6,21.2,28,30.46,10.0,NE,4.6,-,N/A,,Clear,50,2012-11-12 23:15:00
5:35 PM,51.8,21.2,30,30.46,10.0,Calm,Calm,-,N/A,,Clear,0,2012-11-12 23:35:00
5:55 PM,48.2,23.0,37,30.46,10.0,Calm,Calm,-,N/A,,Clear,0,2012-11-12 23:55:00
6:15 PM,46.4,21.2,37,30.47,10.0,Calm,Calm,-,N/A,,Clear,0,2012-11-13 00:15:00
6:35 PM,42.8,24.8,49,30.48,10.0,Calm,Calm,-,N/A,,Clear,0,2012-11-13 00:35:00
6:55 PM,42.8,28.4,57,30.48,10.0,Calm,Calm,-,N/A,,Clear,0,2012-11-13 00:55:00
7:15 PM,41.0,26.6,57,30.48,10.0,Calm,Calm,-,N/A,,Clear,0,2012-11-13 01:15:00
7:35 PM,41.0,24.8,53,30.48,10.0,Calm,Calm,-,N/A,,Clear,0,2012-11-13 01:35:00
7:55 PM,39.2,28.4,65,30.50,10.0,Calm,Calm,-,N/A,,Clear,0,2012-11-13 01:55:00
8:15 PM,39.2,32.0,75,30.50,10.0,Calm,Calm,-,N/A,,Clear,0,2012-11-13 02:15:00
8:35 PM,37.4,30.2,75,30.50,10.0,Calm,Calm,-,N/A,,Clear,0,2012-11-13 02:35:00
8:55 PM,35.6,30.2,81,30.51,10.0,Calm,Calm,-,N/A,,Clear,0,2012-11-13 02:55:00
9:15 PM,35.6,30.2,81,30.51,10.0,Calm,Calm,-,N/A,,Clear,0,2012-11-13 03:15:00
9:35 PM,33.8,30.2,87,30.52,10.0,Calm,Calm,-,N/A,,Clear,0,2012-11-13 03:35:00
9:55 PM,35.6,30.2,81,30.51,10.0,Calm,Calm,-,N/A,,Clear,0,2012-11-13 03:55:00
10:15 PM,35.6,30.2,81,30.51,10.0,Calm,Calm,-,N/A,,Clear,0,2012-11-13 04:15:00
10:35 PM,33.8,30.2,87,30.51,10.0,Calm,Calm,-,N/A,,Clear,0,2012-11-13 04:35:00
10:55 PM,33.8,30.2,87,30.51,10.0,Calm,Calm,-,N/A,,Clear,0,2012-11-13 04:55:00
11:15 PM,33.8,30.2,87,30.51,10.0,Calm,Calm,-,N/A,,Clear,0,2012-11-13 05:15:00
11:35 PM,33.8,30.2,87,30.51,10.0,Calm,Calm,-,N/A,,Clear,0,2012-11-13 05:35:00
11:55 PM,32.0,30.2,93,30.51,10.0,Calm,Calm,-,N/A,,Clear,0,2012-11-13 05:55:00